| time (UTC) | temp F | wind direction | speed MPH | gust MPH | rain 1hr in | rain 24hr in | rain mn in | humidity % | barometer mb |
| 20260507200557 | 65 | 301 | 3.0 | 9.0 | 0.00 | 0.07 | 0.01 | 32 | 1020.6 |
| 20260507200057 | 66 | 329 | 3.0 | 9.0 | 0.00 | 0.08 | 0.01 | 37 | 1020.6 |
| 20260507195557 | 65 | 338 | 4.0 | 9.0 | 0.00 | 0.09 | 0.01 | 36 | 1020.6 |
| 20260507195055 | 65 | 335 | 7.0 | 13.0 | 0.00 | 0.10 | 0.01 | 36 | 1020.6 |
| 20260507194554 | 64 | 311 | 7.0 | 13.0 | 0.00 | 0.11 | 0.01 | 37 | 1020.6 |
| 20260507194055 | 64 | 300 | 6.0 | 11.0 | 0.00 | 0.12 | 0.01 | 35 | 1020.6 |
| 20260507193555 | 63 | 283 | 7.0 | 16.0 | 0.00 | 0.13 | 0.01 | 34 | 1020.6 |
| 20260507193054 | 63 | 269 | 8.0 | 16.0 | 0.00 | 0.14 | 0.01 | 38 | 1020.6 |
| 20260507192554 | 62 | 279 | 9.0 | 20.0 | 0.00 | 0.15 | 0.01 | 34 | 1020.6 |
| 20260507192056 | 63 | 289 | 9.0 | 20.0 | 0.00 | 0.17 | 0.01 | 35 | 1020.6 |
| 20260507191556 | 63 | 283 | 9.0 | 17.0 | 0.00 | 0.18 | 0.01 | 35 | 1020.6 |
| 20260507191055 | 62 | 288 | 10.0 | 18.0 | 0.00 | 0.18 | 0.01 | 36 | 1020.6 |
| 20260507190552 | 62 | 304 | 7.0 | 18.0 | 0.00 | 0.18 | 0.01 | 35 | 1020.6 |
| 20260507190053 | 62 | 313 | 3.0 | 12.0 | 0.00 | 0.18 | 0.01 | 35 | 1020.6 |
| 20260507185553 | 62 | 287 | 2.0 | 8.0 | 0.00 | 0.18 | 0.01 | 42 | 1020.6 |
| 20260507185326 | 61 | 221 | 2.0 | 9.0 | 0.00 | 0.18 | 0.01 | 36 | 1020.6 |
| 20260507184552 | 60 | 290 | 3.0 | 10.0 | 0.00 | 0.18 | 0.01 | 35 | 1020.6 |
| 20260507184052 | 59 | 307 | 4.0 | 11.0 | 0.00 | 0.18 | 0.01 | 36 | 1020.6 |
| 20260507183553 | 59 | 295 | 4.0 | 11.0 | 0.00 | 0.18 | 0.01 | 39 | 1020.6 |
| 20260507183053 | 59 | 304 | 4.0 | 9.0 | 0.00 | 0.18 | 0.01 | 39 | 1020.6 |
| 20260507182550 | 59 | 296 | 3.0 | 9.0 | 0.00 | 0.18 | 0.01 | 36 | 1020.6 |
| 20260507182051 | 58 | 292 | 2.0 | 8.0 | 0.00 | 0.18 | 0.01 | 37 | 1020.6 |
| 20260507181552 | 58 | 295 | 2.0 | 6.0 | 0.00 | 0.18 | 0.01 | 37 | 1020.6 |
| 20260507181051 | 58 | 285 | 2.0 | 6.0 | 0.00 | 0.18 | 0.01 | 38 | 1020.6 |
| 20260507180551 | 58 | 288 | 2.0 | 6.0 | 0.00 | 0.18 | 0.01 | 38 | 1020.6 |
| 20260507180051 | 58 | 288 | 1.0 | 5.0 | 0.00 | 0.18 | 0.01 | 40 | 1020.6 |
| 20260507175551 | 58 | 302 | 0.0 | 3.0 | 0.00 | 0.18 | 0.01 | 40 | 1020.6 |
| 20260507175323 | 57 | 273 | 0.0 | 0.0 | 0.00 | 0.18 | 0.01 | 45 | 1020.6 |
| 20260507174551 | 56 | 293 | 0.0 | 1.0 | 0.00 | 0.18 | 0.01 | 45 | 1020.6 |
| 20260507174050 | 56 | 293 | 0.0 | 1.0 | 0.00 | 0.18 | 0.01 | 46 | 1020.6 |
| 20260507173550 | 56 | 290 | 0.0 | 0.0 | 0.00 | 0.18 | 0.01 | 46 | 1020.6 |
| 20260507173319 | 56 | 290 | 0.0 | 1.0 | 0.00 | 0.18 | 0.01 | 44 | 1020.6 |
| 20260507172548 | 56 | 309 | 0.0 | 3.0 | 0.00 | 0.18 | 0.01 | 44 | 1020.6 |
| 20260507172051 | 56 | 301 | 0.0 | 3.0 | 0.00 | 0.18 | 0.01 | 44 | 1020.6 |
| 20260507171818 | 56 | 88 | 0.0 | 0.0 | 0.00 | 0.18 | 0.01 | 42 | 1020.6 |
| 20260507171048 | 56 | 80 | 0.0 | 2.0 | 0.00 | 0.18 | 0.01 | 43 | 1020.6 |
| 20260507170551 | 56 | 80 | 0.0 | 2.0 | 0.00 | 0.18 | 0.01 | 45 | 1020.6 |
| 20260507170048 | 56 | 113 | 0.0 | 3.0 | 0.00 | 0.18 | 0.01 | 45 | 1020.6 |
| 20260507165819 | 56 | 116 | 0.0 | 3.0 | 0.00 | 0.18 | 0.01 | 45 | 1020.6 |
| 20260507165323 | 56 | 95 | 0.0 | 2.0 | 0.00 | 0.18 | 0.01 | 43 | 1020.6 |
| 20260507164547 | 56 | 88 | 0.0 | 3.0 | 0.00 | 0.18 | 0.01 | 42 | 1020.6 |
| 20260507164045 | 56 | 236 | 1.0 | 5.0 | 0.00 | 0.18 | 0.01 | 42 | 1020.6 |
| 20260507163547 | 56 | 278 | 1.0 | 5.0 | 0.00 | 0.18 | 0.01 | 44 | 1020.6 |
| 20260507163047 | 56 | 311 | 1.0 | 5.0 | 0.00 | 0.18 | 0.01 | 41 | 1020.6 |
| 20260507162545 | 56 | 359 | 1.0 | 5.0 | 0.00 | 0.18 | 0.01 | 42 | 1020.6 |
| 20260507162044 | 57 | 79 | 1.0 | 6.0 | 0.00 | 0.18 | 0.01 | 46 | 1020.6 |
| 20260507161545 | 58 | 135 | 2.0 | 10.0 | 0.00 | 0.18 | 0.01 | 43 | 1020.6 |
| 20260507161045 | 58 | 123 | 1.0 | 10.0 | 0.00 | 0.18 | 0.01 | 39 | 1020.6 |
| 20260507160544 | 58 | 88 | 0.0 | 4.0 | 0.00 | 0.18 | 0.01 | 42 | 1020.6 |
| 20260507160043 | 58 | 90 | 1.0 | 4.0 | 0.00 | 0.18 | 0.01 | 42 | 1020.6 |
| 20260507155545 | 59 | 77 | 1.0 | 5.0 | 0.00 | 0.18 | 0.01 | 38 | 1020.6 |
| 20260507155043 | 59 | 167 | 1.0 | 5.0 | 0.00 | 0.18 | 0.01 | 39 | 1020.6 |
| 20260507154542 | 59 | 119 | 1.0 | 6.0 | 0.00 | 0.18 | 0.01 | 41 | 1020.6 |
| 20260507154042 | 58 | 113 | 2.0 | 6.0 | 0.00 | 0.18 | 0.01 | 41 | 1020.6 |
| 20260507153541 | 58 | 342 | 1.0 | 4.0 | 0.00 | 0.18 | 0.01 | 47 | 1020.6 |
| 20260507153315 | 58 | 4 | 1.0 | 6.0 | 0.00 | 0.18 | 0.01 | 48 | 1020.6 |
| 20260507152540 | 57 | 45 | 2.0 | 8.0 | 0.00 | 0.18 | 0.01 | 47 | 1020.6 |
| 20260507152041 | 56 | 58 | 2.0 | 8.0 | 0.00 | 0.18 | 0.01 | 48 | 1020.6 |
| 20260507151542 | 57 | 60 | 2.0 | 7.0 | 0.00 | 0.18 | 0.01 | 48 | 1020.6 |
| 20260507151041 | 59 | 79 | 1.0 | 5.0 | 0.00 | 0.18 | 0.01 | 46 | 1020.6 |
| 20260507150541 | 58 | 304 | 1.0 | 6.0 | 0.00 | 0.18 | 0.01 | 42 | 1020.6 |
| 20260507150310 | 57 | 295 | 4.0 | 10.0 | 0.00 | 0.18 | 0.01 | 43 | 1020.6 |
| 20260507145540 | 57 | 297 | 5.0 | 10.0 | 0.00 | 0.18 | 0.01 | 42 | 1020.6 |
| 20260507145039 | 56 | 259 | 5.0 | 13.0 | 0.00 | 0.18 | 0.01 | 42 | 1020.6 |
| 20260507144538 | 55 | 288 | 7.0 | 14.0 | 0.00 | 0.18 | 0.01 | 43 | 1020.6 |
| 20260507144037 | 55 | 272 | 7.0 | 14.0 | 0.00 | 0.18 | 0.01 | 43 | 1020.6 |
| 20260507143537 | 55 | 272 | 7.0 | 16.0 | 0.00 | 0.18 | 0.01 | 43 | 1020.6 |
| 20260507143035 | 54 | 275 | 8.0 | 16.0 | 0.00 | 0.18 | 0.01 | 44 | 1020.6 |
| 20260507142809 | 54 | 275 | 8.0 | 16.0 | 0.00 | 0.18 | 0.01 | 44 | 1020.6 |
| 20260507142037 | 54 | 301 | 8.0 | 16.0 | 0.00 | 0.18 | 0.01 | 44 | 1020.6 |
| 20260507141535 | 54 | 278 | 9.0 | 16.0 | 0.00 | 0.18 | 0.01 | 43 | 1020.6 |
| 20260507141035 | 53 | 259 | 9.0 | 18.0 | 0.00 | 0.18 | 0.01 | 42 | 1020.6 |
| 20260507140537 | 53 | 278 | 9.0 | 18.0 | 0.00 | 0.18 | 0.01 | 44 | 1020.6 |
| 20260507140037 | 52 | 269 | 9.0 | 17.0 | 0.00 | 0.18 | 0.01 | 43 | 1020.6 |
| 20260507135536 | 52 | 297 | 10.0 | 17.0 | 0.00 | 0.18 | 0.01 | 44 | 1020.6 |
| 20260507135035 | 52 | 293 | 9.0 | 17.0 | 0.00 | 0.18 | 0.01 | 45 | 1020.6 |
| 20260507134536 | 51 | 260 | 9.0 | 16.0 | 0.00 | 0.18 | 0.01 | 44 | 1020.6 |
| 20260507134038 | 51 | 297 | 10.0 | 20.0 | 0.00 | 0.18 | 0.01 | 44 | 1020.6 |
| 20260507133536 | 50 | 273 | 12.0 | 20.0 | 0.00 | 0.18 | 0.01 | 45 | 1020.6 |
| 20260507133036 | 50 | 286 | 13.0 | 22.0 | 0.00 | 0.18 | 0.01 | 45 | 1020.6 |
| 20260507132536 | 50 | 290 | 13.0 | 22.0 | 0.00 | 0.18 | 0.01 | 45 | 1020.6 |
| 20260507132037 | 50 | 288 | 13.0 | 22.0 | 0.00 | 0.18 | 0.01 | 44 | 1020.6 |
| 20260507131536 | 49 | 291 | 13.0 | 21.0 | 0.00 | 0.18 | 0.01 | 47 | 1020.6 |
| 20260507131037 | 49 | 294 | 12.0 | 21.0 | 0.00 | 0.18 | 0.01 | 47 | 1020.6 |
| 20260507130537 | 48 | 273 | 13.0 | 21.0 | 0.00 | 0.18 | 0.01 | 47 | 1020.6 |
| 20260507130037 | 48 | 279 | 13.0 | 21.0 | 0.00 | 0.18 | 0.01 | 47 | 1020.6 |
| 20260507125807 | 48 | 268 | 13.0 | 21.0 | 0.00 | 0.18 | 0.01 | 47 | 1020.6 |
| 20260507125036 | 47 | 296 | 12.0 | 20.0 | 0.00 | 0.18 | 0.01 | 47 | 1020.6 |
| 20260507124538 | 47 | 279 | 13.0 | 21.0 | 0.00 | 0.18 | 0.01 | 48 | 1020.6 |
| 20260507124036 | 47 | 281 | 14.0 | 22.0 | 0.00 | 0.18 | 0.01 | 46 | 1020.6 |
| 20260507123535 | 47 | 293 | 15.0 | 22.0 | 0.00 | 0.18 | 0.01 | 46 | 1020.6 |
| 20260507123307 | 47 | 254 | 14.0 | 26.0 | 0.00 | 0.18 | 0.01 | 47 | 1020.6 |
| 20260507122543 | 47 | 276 | 14.0 | 26.0 | 0.00 | 0.18 | 0.01 | 47 | 1020.6 |
| 20260507122537 | 47 | 292 | 14.0 | 26.0 | 0.00 | 0.18 | 0.01 | 47 | 1020.6 |
| 20260507121537 | 47 | 273 | 13.0 | 25.0 | 0.00 | 0.18 | 0.01 | 47 | 1020.6 |
| 20260507121307 | 46 | 252 | 11.0 | 21.0 | 0.00 | 0.18 | 0.01 | 47 | 1020.6 |
| 20260507120806 | 46 | 276 | 10.0 | 22.0 | 0.00 | 0.18 | 0.01 | 48 | 1020.6 |
| 20260507120306 | 46 | 282 | 9.0 | 22.0 | 0.00 | 0.18 | 0.01 | 49 | 1020.6 |
| 20260507115536 | 46 | 277 | 9.0 | 16.0 | 0.00 | 0.18 | 0.01 | 49 | 1020.6 |
| 20260507115037 | 46 | 288 | 10.0 | 18.0 | 0.00 | 0.18 | 0.01 | 48 | 1020.6 |
| 20260507114535 | 47 | 330 | 11.0 | 20.0 | 0.00 | 0.18 | 0.01 | 46 | 1020.6 |
| 20260507114036 | 46 | 322 | 12.0 | 20.0 | 0.00 | 0.18 | 0.01 | 47 | 1020.6 |
| 20260507113536 | 46 | 299 | 11.0 | 23.0 | 0.00 | 0.18 | 0.01 | 46 | 1020.6 |
| 20260507113035 | 46 | 254 | 10.0 | 23.0 | 0.00 | 0.18 | 0.01 | 46 | 1020.6 |
| 20260507112809 | 46 | 314 | 10.0 | 20.0 | 0.00 | 0.18 | 0.01 | 47 | 1020.6 |
| 20260507112658 | 47 | 302 | 11.0 | 20.0 | 0.00 | 0.18 | 0.01 | 45 | 1020.6 |
| 20260507111808 | 47 | 286 | 11.0 | 19.0 | 0.00 | 0.18 | 0.01 | 46 | 1020.6 |
| 20260507111036 | 47 | 282 | 10.0 | 19.0 | 0.00 | 0.18 | 0.01 | 45 | 1020.6 |
| 20260507110537 | 47 | 302 | 10.0 | 19.0 | 0.00 | 0.18 | 0.01 | 44 | 1020.6 |
| 20260507110037 | 48 | 302 | 9.0 | 17.0 | 0.00 | 0.18 | 0.01 | 41 | 1020.6 |
| 20260507105535 | 48 | 280 | 9.0 | 20.0 | 0.00 | 0.18 | 0.01 | 42 | 1020.6 |
| 20260507105036 | 47 | 265 | 10.0 | 20.0 | 0.00 | 0.18 | 0.01 | 42 | 1020.6 |
| 20260507104535 | 47 | 263 | 10.0 | 20.0 | 0.00 | 0.18 | 0.01 | 43 | 1020.6 |
| 20260507104038 | 47 | 285 | 10.0 | 18.0 | 0.00 | 0.18 | 0.01 | 43 | 1020.6 |
| 20260507103535 | 47 | 313 | 9.0 | 16.0 | 0.00 | 0.18 | 0.01 | 44 | 1020.6 |
| 20260507103035 | 47 | 254 | 8.0 | 15.0 | 0.00 | 0.18 | 0.01 | 45 | 1020.6 |
| 20260507102808 | 46 | 265 | 8.0 | 16.0 | 0.00 | 0.18 | 0.01 | 45 | 1020.6 |
| 20260507102035 | 46 | 299 | 10.0 | 18.0 | 0.00 | 0.18 | 0.01 | 46 | 1020.6 |
| 20260507101536 | 46 | 319 | 10.0 | 18.0 | 0.00 | 0.18 | 0.01 | 46 | 1020.6 |
| 20260507101035 | 46 | 302 | 10.0 | 17.0 | 0.00 | 0.18 | 0.01 | 47 | 1020.6 |
| 20260507100537 | 47 | 317 | 10.0 | 18.0 | 0.00 | 0.18 | 0.01 | 45 | 1020.6 |
| 20260507100040 | 46 | 298 | 10.0 | 18.0 | 0.00 | 0.18 | 0.01 | 46 | 1020.6 |
| 20260507100036 | 47 | 298 | 10.0 | 18.0 | 0.00 | 0.18 | 0.01 | 44 | 1020.6 |
| 20260507095037 | 46 | 281 | 10.0 | 17.0 | 0.00 | 0.18 | 0.01 | 46 | 1020.6 |
| 20260507094534 | 46 | 281 | 9.0 | 16.0 | 0.00 | 0.18 | 0.01 | 46 | 1020.6 |
| 20260507094033 | 46 | 281 | 9.0 | 17.0 | 0.00 | 0.18 | 0.01 | 45 | 1020.6 |
| 20260507093535 | 46 | 296 | 9.0 | 17.0 | 0.00 | 0.18 | 0.01 | 47 | 1020.6 |
| 20260507093034 | 46 | 277 | 10.0 | 21.0 | 0.00 | 0.18 | 0.01 | 46 | 1020.6 |
| 20260507092533 | 46 | 304 | 10.0 | 21.0 | 0.00 | 0.18 | 0.01 | 47 | 1020.6 |
| 20260507092307 | 46 | 309 | 10.0 | 17.0 | 0.00 | 0.18 | 0.01 | 46 | 1020.6 |
| 20260507091536 | 46 | 264 | 10.0 | 19.0 | 0.00 | 0.18 | 0.01 | 44 | 1020.6 |
| 20260507091034 | 46 | 264 | 10.0 | 21.0 | 0.00 | 0.18 | 0.01 | 45 | 1020.6 |
| 20260507090535 | 46 | 299 | 10.0 | 21.0 | 0.00 | 0.18 | 0.01 | 45 | 1020.6 |
| 20260507090035 | 46 | 294 | 12.0 | 23.0 | 0.01 | 0.18 | 0.01 | 44 | 1020.6 |
| 20260507085534 | 46 | 300 | 13.0 | 23.0 | 0.01 | 0.18 | 0.01 | 43 | 1020.6 |
| 20260507085033 | 46 | 285 | 12.0 | 21.0 | 0.01 | 0.18 | 0.01 | 43 | 1020.6 |
| 20260507084803 | 46 | 298 | 12.0 | 24.0 | 0.01 | 0.18 | 0.01 | 43 | 1020.6 |
| 20260507084032 | 46 | 299 | 11.0 | 24.0 | 0.01 | 0.18 | 0.01 | 43 | 1020.6 |
| 20260507083531 | 45 | 274 | 11.0 | 19.0 | 0.01 | 0.18 | 0.01 | 43 | 1020.6 |
| 20260507083031 | 45 | 271 | 10.0 | 18.0 | 0.01 | 0.18 | 0.01 | 43 | 1020.6 |
| 20260507082533 | 44 | 283 | 11.0 | 21.0 | 0.01 | 0.18 | 0.01 | 45 | 1020.6 |
| 20260507082032 | 44 | 278 | 11.0 | 21.0 | 0.01 | 0.18 | 0.01 | 45 | 1020.6 |
| 20260507081532 | 44 | 311 | 11.0 | 18.0 | 0.01 | 0.18 | 0.01 | 44 | 1020.6 |
| 20260507081032 | 44 | 273 | 10.0 | 19.0 | 0.01 | 0.18 | 0.01 | 45 | 1020.6 |
| 20260507080531 | 44 | 278 | 10.0 | 19.0 | 0.01 | 0.18 | 0.01 | 45 | 1020.6 |
| 20260507080302 | 44 | 291 | 10.0 | 19.0 | 0.00 | 0.17 | 0.00 | 43 | 1020.6 |
| 20260507080154 | 44 | 271 | 9.0 | 18.0 | 0.00 | 0.17 | 0.00 | 43 | 1020.6 |
| 20260507075033 | 44 | 273 | 8.0 | 17.0 | 0.00 | 0.17 | 0.00 | 45 | 1020.6 |
| 20260507074531 | 43 | 255 | 8.0 | 15.0 | 0.00 | 0.17 | 0.00 | 45 | 1020.6 |
| 20260507074033 | 43 | 285 | 8.0 | 17.0 | 0.00 | 0.17 | 0.00 | 44 | 1020.6 |
| 20260507073531 | 43 | 296 | 8.0 | 17.0 | 0.00 | 0.17 | 0.00 | 44 | 1020.6 |
| 20260507073034 | 44 | 282 | 6.0 | 14.0 | 0.00 | 0.17 | 0.00 | 42 | 1020.6 |
| 20260507072531 | 44 | 269 | 6.0 | 14.0 | 0.00 | 0.17 | 0.00 | 43 | 1020.6 |
| 20260507072032 | 44 | 304 | 5.0 | 14.0 | 0.00 | 0.17 | 0.00 | 40 | 1020.6 |
| 20260507071532 | 44 | 286 | 5.0 | 15.0 | 0.00 | 0.17 | 0.00 | 41 | 1020.6 |
| 20260507071033 | 44 | 314 | 4.0 | 15.0 | 0.00 | 0.17 | 0.00 | 42 | 1020.6 |
| 20260507070532 | 43 | 274 | 2.0 | 11.0 | 0.00 | 0.17 | 0.00 | 44 | 1020.6 |
| 20260507070030 | 42 | 340 | 1.0 | 7.0 | 0.00 | 0.17 | 0.00 | 46 | 1020.6 |
| 20260507065530 | 42 | 302 | 1.0 | 7.0 | 0.00 | 0.17 | 0.00 | 45 | 1020.6 |
| 20260507065031 | 42 | 302 | 1.0 | 7.0 | 0.00 | 0.17 | 0.00 | 48 | 1020.6 |
| 20260507064529 | 42 | 300 | 1.0 | 4.0 | 0.00 | 0.17 | 0.00 | 47 | 1020.6 |
| 20260507064030 | 43 | 297 | 2.0 | 6.0 | 0.00 | 0.17 | 0.00 | 46 | 1020.6 |
| 20260507063530 | 43 | 252 | 2.0 | 6.0 | 0.00 | 0.17 | 0.00 | 45 | 1020.6 |
| 20260507063301 | 42 | 280 | 1.0 | 5.0 | 0.00 | 0.17 | 0.00 | 48 | 1020.6 |
| 20260507062803 | 41 | 283 | 1.0 | 4.0 | 0.00 | 0.17 | 0.00 | 50 | 1020.6 |
| 20260507062029 | 42 | 268 | 1.0 | 3.0 | 0.00 | 0.17 | 0.00 | 49 | 1020.6 |
| 20260507061530 | 41 | 337 | 1.0 | 4.0 | 0.00 | 0.17 | 0.00 | 50 | 1020.6 |
| 20260507061030 | 40 | 42 | 1.0 | 4.0 | 0.00 | 0.17 | 0.00 | 53 | 1020.6 |
| 20260507060527 | 40 | 51 | 1.0 | 5.0 | 0.00 | 0.17 | 0.00 | 55 | 1020.6 |
| 20260507060026 | 39 | 114 | 1.0 | 5.0 | 0.00 | 0.17 | 0.00 | 57 | 1020.6 |
| 20260507055527 | 39 | 89 | 0.0 | 4.0 | 0.00 | 0.17 | 0.17 | 58 | 1020.6 |
| 20260507055026 | 39 | 129 | 0.0 | 4.0 | 0.00 | 0.17 | 0.17 | 61 | 1020.6 |
| 20260507054527 | 38 | 121 | 0.0 | 3.0 | 0.00 | 0.17 | 0.17 | 67 | 1020.6 |
| 20260507054025 | 38 | 255 | 0.0 | 2.0 | 0.00 | 0.17 | 0.17 | 70 | 1020.6 |
| 20260507053527 | 39 | 77 | 0.0 | 3.0 | 0.00 | 0.17 | 0.17 | 73 | 1020.6 |
| 20260507053023 | 38 | 94 | 0.0 | 3.0 | 0.00 | 0.17 | 0.17 | 79 | 1020.6 |
| 20260507052524 | 38 | 117 | 0.0 | 1.0 | 0.00 | 0.17 | 0.17 | 88 | 1020.6 |
| 20260507052023 | 37 | 119 | 0.0 | 3.0 | 0.00 | 0.17 | 0.17 | 95 | 1020.6 |
| 20260507051524 | 36 | 285 | 0.0 | 3.0 | 0.00 | 0.17 | 0.17 | 96 | 1020.6 |
| 20260507051022 | 36 | 283 | 0.0 | 3.0 | 0.00 | 0.17 | 0.17 | 97 | 1020.6 |
| 20260507050754 | 36 | 283 | 0.0 | 3.0 | 0.00 | 0.17 | 0.17 | 97 | 1020.6 |
| 20260507050639 | 36 | 148 | 0.0 | 3.0 | 0.00 | 0.17 | 0.17 | 97 | 1020.6 |
| 20260507045521 | 35 | 257 | 0.0 | 3.0 | 0.00 | 0.17 | 0.17 | 97 | 1020.6 |
| 20260507045021 | 34 | 151 | 0.0 | 1.0 | 0.00 | 0.17 | 0.17 | 97 | 1020.6 |
| 20260507044520 | 35 | 134 | 0.0 | 0.0 | 0.00 | 0.17 | 0.17 | 97 | 1020.6 |
| 20260507044024 | 34 | 157 | 0.0 | 0.0 | 0.00 | 0.17 | 0.17 | 97 | 1020.6 |
| 20260507043522 | 34 | 231 | 0.0 | 0.0 | 0.00 | 0.17 | 0.17 | 97 | 1020.6 |
| 20260507043020 | 33 | 233 | 0.0 | 0.0 | 0.00 | 0.17 | 0.17 | 96 | 1020.6 |
| 20260507042518 | 33 | 264 | 0.0 | 0.0 | 0.00 | 0.17 | 0.17 | 97 | 1020.6 |
| 20260507042020 | 33 | 264 | 0.0 | 0.0 | 0.00 | 0.17 | 0.17 | 97 | 1020.6 |
| 20260507041750 | 33 | 292 | 0.0 | 2.0 | 0.00 | 0.17 | 0.17 | 96 | 1020.6 |
| 20260507041021 | 33 | 292 | 0.0 | 2.0 | 0.00 | 0.17 | 0.17 | 96 | 1020.6 |
| 20260507040518 | 33 | 290 | 0.0 | 1.0 | 0.00 | 0.17 | 0.17 | 96 | 1020.6 |
| 20260507040253 | 33 | 304 | 0.0 | 1.0 | 0.00 | 0.17 | 0.17 | 96 | 1020.6 |
| 20260507035518 | 32 | 321 | 0.0 | 0.0 | 0.00 | 0.17 | 0.17 | 96 | 1020.6 |
| 20260507035016 | 32 | 321 | 0.0 | 0.0 | 0.00 | 0.17 | 0.17 | 96 | 1020.6 |
| 20260507034518 | 31 | 293 | 0.0 | 1.0 | 0.00 | 0.17 | 0.17 | 96 | 1020.6 |
| 20260507034251 | 32 | 295 | 0.0 | 1.0 | 0.00 | 0.17 | 0.17 | 96 | 1020.6 |
| 20260507033516 | 32 | 217 | 0.0 | 0.0 | 0.00 | 0.17 | 0.17 | 96 | 1020.6 |
| 20260507033015 | 32 | 217 | 0.0 | 0.0 | 0.00 | 0.17 | 0.17 | 96 | 1020.6 |
| 20260507032514 | 32 | 217 | 0.0 | 0.0 | 0.00 | 0.17 | 0.17 | 96 | 1020.6 |
| 20260507032013 | 32 | 217 | 0.0 | 0.0 | 0.00 | 0.17 | 0.17 | 96 | 1020.6 |
| 20260507031744 | 31 | 266 | 0.0 | 0.0 | 0.00 | 0.17 | 0.17 | 96 | 1020.6 |
| 20260507031245 | 32 | 140 | 0.0 | 0.0 | 0.00 | 0.17 | 0.17 | 96 | 1020.6 |
| 20260507030512 | 31 | 141 | 0.0 | 1.0 | 0.00 | 0.17 | 0.17 | 96 | 1020.6 |
| 20260507030010 | 31 | 131 | 0.0 | 1.0 | 0.00 | 0.17 | 0.17 | 96 | 1020.6 |
| 20260507025510 | 31 | 116 | 0.0 | 1.0 | 0.00 | 0.17 | 0.17 | 96 | 1020.6 |
| 20260507025009 | 31 | 247 | 0.0 | 0.0 | 0.00 | 0.17 | 0.17 | 96 | 1020.6 |
| 20260507024507 | 31 | 115 | 0.0 | 1.0 | 0.00 | 0.17 | 0.17 | 96 | 1020.6 |
| 20260507024007 | 31 | 103 | 0.0 | 1.0 | 0.00 | 0.17 | 0.17 | 96 | 1020.6 |
| 20260507023740 | 31 | 244 | 0.0 | 0.0 | 0.00 | 0.17 | 0.17 | 96 | 1020.6 |
| 20260507023009 | 31 | 240 | 0.0 | 0.0 | 0.00 | 0.17 | 0.17 | 96 | 1020.6 |
| 20260507022507 | 32 | 255 | 0.0 | 0.0 | 0.00 | 0.17 | 0.17 | 95 | 1020.6 |
| 20260507022006 | 32 | 195 | 0.0 | 0.0 | 0.00 | 0.17 | 0.17 | 95 | 1020.6 |
| 20260507021741 | 32 | 116 | 0.0 | 0.0 | 0.00 | 0.17 | 0.17 | 95 | 1020.6 |
| 20260507021007 | 32 | 120 | 0.0 | 1.0 | 0.00 | 0.17 | 0.17 | 95 | 1020.6 |
| 20260507020507 | 32 | 197 | 0.0 | 1.0 | 0.00 | 0.17 | 0.17 | 95 | 1020.6 |
| 20260507020009 | 33 | 251 | 0.0 | 1.0 | 0.00 | 0.17 | 0.17 | 95 | 1020.6 |
| 20260507015507 | 33 | 222 | 0.0 | 1.0 | 0.00 | 0.17 | 0.17 | 95 | 1020.6 |
| 20260507015006 | 33 | 93 | 0.0 | 1.0 | 0.00 | 0.17 | 0.17 | 94 | 1020.6 |
| 20260507014506 | 34 | 118 | 0.0 | 2.0 | 0.00 | 0.17 | 0.17 | 94 | 1020.6 |
| 20260507014009 | 34 | 238 | 0.0 | 2.0 | 0.00 | 0.17 | 0.17 | 94 | 1020.6 |
| 20260507013507 | 35 | 108 | 0.0 | 2.0 | 0.00 | 0.17 | 0.17 | 94 | 1020.6 |
| 20260507013006 | 36 | 95 | 0.0 | 2.0 | 0.00 | 0.17 | 0.17 | 94 | 1020.6 |
| 20260507012506 | 36 | 82 | 0.0 | 1.0 | 0.00 | 0.17 | 0.17 | 94 | 1020.6 |
| 20260507012008 | 36 | 115 | 0.0 | 2.0 | 0.00 | 0.17 | 0.17 | 94 | 1020.6 |
| 20260507011507 | 36 | 186 | 0.0 | 2.0 | 0.00 | 0.17 | 0.17 | 94 | 1020.6 |
| 20260507011008 | 36 | 90 | 0.0 | 2.0 | 0.00 | 0.17 | 0.17 | 94 | 1020.6 |
| 20260507010738 | 37 | 79 | 0.0 | 2.0 | 0.00 | 0.17 | 0.17 | 94 | 1020.6 |
| 20260507010237 | 37 | 90 | 0.0 | 2.0 | 0.00 | 0.17 | 0.17 | 94 | 1020.6 |
| 20260507005506 | 37 | 102 | 0.0 | 2.0 | 0.00 | 0.17 | 0.17 | 94 | 1020.6 |
| 20260507005004 | 37 | 120 | 0.0 | 1.0 | 0.00 | 0.17 | 0.17 | 94 | 1020.6 |
| 20260507004510 | 37 | 125 | 0.0 | 1.0 | 0.00 | 0.17 | 0.17 | 94 | 1020.6 |
| 20260507004505 | 37 | 96 | 0.0 | 1.0 | 0.00 | 0.17 | 0.17 | 94 | 1020.6 |
| 20260507003501 | 37 | 75 | 0.0 | 1.0 | 0.00 | 0.17 | 0.17 | 94 | 1020.6 |
| 20260507002959 | 37 | 224 | 0.0 | 1.0 | 0.00 | 0.17 | 0.17 | 94 | 1020.6 |
| 20260507002728 | 37 | 80 | 0.0 | 1.0 | 0.00 | 0.17 | 0.17 | 94 | 1020.6 |
| 20260507002227 | 37 | 97 | 0.0 | 2.0 | 0.00 | 0.17 | 0.17 | 94 | 1020.6 |
| 20260507001456 | 37 | 100 | 0.0 | 2.0 | 0.00 | 0.17 | 0.17 | 94 | 1020.6 |
| 20260507000956 | 37 | 81 | 0.0 | 2.0 | 0.00 | 0.17 | 0.17 | 94 | 1020.6 |
| 20260507000457 | 37 | 134 | 0.0 | 3.0 | 0.00 | 0.17 | 0.17 | 94 | 1020.6 |
| 20260506235957 | 37 | 124 | 0.0 | 3.0 | 0.00 | 0.17 | 0.17 | 94 | 1020.6 |
| 20260506235459 | 37 | 181 | 0.0 | 1.0 | 0.00 | 0.17 | 0.17 | 94 | 1020.6 |
| 20260506234957 | 37 | 92 | 0.0 | 2.0 | 0.00 | 0.17 | 0.17 | 94 | 1020.6 |
| 20260506234455 | 37 | 106 | 0.0 | 2.0 | 0.00 | 0.17 | 0.17 | 94 | 1020.6 |
| 20260506233955 | 37 | 85 | 0.0 | 2.0 | 0.00 | 0.17 | 0.17 | 94 | 1020.6 |
| 20260506233455 | 36 | 93 | 0.0 | 3.0 | 0.00 | 0.17 | 0.17 | 94 | 1020.6 |
| 20260506232956 | 36 | 93 | 0.0 | 3.0 | 0.00 | 0.17 | 0.17 | 94 | 1020.6 |
| 20260506232454 | 36 | 129 | 0.0 | 2.0 | 0.00 | 0.17 | 0.17 | 94 | 1020.6 |
| 20260506231955 | 36 | 220 | 0.0 | 3.0 | 0.00 | 0.17 | 0.17 | 94 | 1020.6 |
| 20260506231456 | 35 | 158 | 0.0 | 3.0 | 0.00 | 0.17 | 0.17 | 94 | 1020.6 |
| 20260506230956 | 36 | 69 | 0.0 | 2.0 | 0.00 | 0.17 | 0.17 | 94 | 1020.6 |
| 20260506230453 | 35 | 77 | 0.0 | 2.0 | 0.00 | 0.17 | 0.17 | 94 | 1020.6 |
| 20260506230224 | 36 | 96 | 0.0 | 2.0 | 0.00 | 0.17 | 0.17 | 94 | 1020.6 |
| 20260506225454 | 36 | 85 | 0.0 | 3.0 | 0.00 | 0.17 | 0.17 | 94 | 1020.6 |
| 20260506224951 | 36 | 120 | 0.0 | 3.0 | 0.00 | 0.17 | 0.17 | 93 | 1020.6 |
| 20260506224454 | 36 | 247 | 0.0 | 1.0 | 0.00 | 0.17 | 0.17 | 93 | 1020.6 |
| 20260506224224 | 36 | 248 | 0.0 | 1.0 | 0.00 | 0.17 | 0.17 | 93 | 1020.6 |
| 20260506223725 | 36 | 73 | 1.0 | 4.0 | 0.00 | 0.17 | 0.17 | 93 | 1020.6 |
| 20260506222953 | 36 | 120 | 1.0 | 4.0 | 0.00 | 0.17 | 0.17 | 93 | 1020.6 |
| 20260506222450 | 37 | 91 | 0.0 | 3.0 | 0.00 | 0.17 | 0.17 | 94 | 1020.6 |
| 20260506221951 | 36 | 63 | 0.0 | 2.0 | 0.00 | 0.17 | 0.17 | 93 | 1020.6 |
| 20260506221450 | 36 | 70 | 0.0 | 2.0 | 0.00 | 0.17 | 0.17 | 93 | 1020.6 |
| 20260506220950 | 36 | 99 | 0.0 | 2.0 | 0.00 | 0.17 | 0.17 | 93 | 1020.6 |
| 20260506220451 | 36 | 246 | 1.0 | 3.0 | 0.00 | 0.17 | 0.17 | 94 | 1020.6 |
| 20260506215948 | 35 | 85 | 1.0 | 4.0 | 0.00 | 0.17 | 0.17 | 93 | 1020.6 |
| 20260506215448 | 35 | 84 | 1.0 | 4.0 | 0.00 | 0.17 | 0.17 | 93 | 1020.6 |
| 20260506214949 | 35 | 81 | 0.0 | 3.0 | 0.00 | 0.17 | 0.17 | 93 | 1020.6 |
| 20260506214449 | 35 | 276 | 0.0 | 2.0 | 0.01 | 0.17 | 0.17 | 92 | 1020.6 |
| 20260506213949 | 35 | 107 | 0.0 | 1.0 | 0.01 | 0.17 | 0.17 | 92 | 1020.6 |
| 20260506213450 | 35 | 89 | 0.0 | 1.0 | 0.01 | 0.17 | 0.17 | 93 | 1020.6 |
| 20260506212949 | 35 | 84 | 0.0 | 3.0 | 0.02 | 0.17 | 0.17 | 92 | 1020.6 |
| 20260506212449 | 35 | 84 | 0.0 | 3.0 | 0.03 | 0.18 | 0.17 | 93 | 1020.6 |
| 20260506211950 | 35 | 104 | 0.0 | 3.0 | 0.04 | 0.18 | 0.17 | 92 | 1020.6 |
| 20260506211447 | 35 | 137 | 1.0 | 3.0 | 0.05 | 0.18 | 0.17 | 93 | 1020.6 |
| 20260506210948 | 35 | 89 | 1.0 | 3.0 | 0.06 | 0.18 | 0.17 | 92 | 1020.6 |
| 20260506210453 | 35 | 101 | 0.0 | 2.0 | 0.07 | 0.18 | 0.17 | 91 | 1020.6 |
| 20260506210447 | 35 | 72 | 1.0 | 3.0 | 0.06 | 0.18 | 0.17 | 91 | 1020.6 |
| 20260506205446 | 36 | 86 | 0.0 | 3.0 | 0.08 | 0.18 | 0.17 | 92 | 1020.6 |
| 20260506204947 | 36 | 165 | 1.0 | 3.0 | 0.09 | 0.19 | 0.17 | 91 | 1020.6 |
| 20260506204717 | 36 | 87 | 0.0 | 2.0 | 0.09 | 0.18 | 0.16 | 91 | 1020.6 |
| 20260506203947 | 36 | 124 | 0.0 | 2.0 | 0.10 | 0.18 | 0.16 | 92 | 1020.6 |
| 20260506203717 | 36 | 105 | 0.0 | 2.0 | 0.11 | 0.18 | 0.16 | 91 | 1020.6 |
| 20260506202949 | 36 | 103 | 1.0 | 3.0 | 0.11 | 0.17 | 0.15 | 92 | 1020.6 |
| 20260506202446 | 35 | 305 | 1.0 | 3.0 | 0.12 | 0.17 | 0.14 | 90 | 1020.6 |
| 20260506202216 | 36 | 289 | 0.0 | 2.0 | 0.12 | 0.16 | 0.13 | 92 | 1020.6 |
| 20260506201445 | 35 | 294 | 0.0 | 0.0 | 0.12 | 0.16 | 0.12 | 93 | 1020.6 |
| 20260506200943 | 35 | 321 | 0.0 | 0.0 | 0.11 | 0.16 | 0.11 | 92 | 1020.6 |